Dean International
Flight School

Career Spotlight

Mika

Mika

Congratulations to Mika from Khazakstan. She recently sent us this photo of her flying an Airbus airliner.

More...
Mika's Success Story
close

Congratulations to Mika from Khazakstan. She recently sent us this photo of her flying an Airbus airliner.

Mario

Mario

My dreams could not have been realized if I wouldn't have been part of the Dean International family.

More...
Mario's Success Story
close

"My dreams could not have been realized if I wouldn't have been part of the Dean International family. Thank you Robert, thanks to all my co-workers, and thanks to all of my students!"

Fernando

Fernando

I am now working as a First Officer at TACA and am enjoying every moment of it.

More...
Fernando's Success Story
close

"Will never forget my time of flight training at Dean International. I am now working as a First Officer at TACA and am enjoying every moment of it."

Alvaro

Alvaro

Because of the flight time I was able to built while instructing, I got the experience needed to apply to an airline in Colombia.

More...
Alvaro's Success Story
close

Dean alumnus Alvaro Londoño currently flies with Tampa Cargo. He says of his experience at Dean: "I want to take this opportunity to thank you for giving me the chance to build my experience and expand my knowledge in Dean International. Because of the flight time I was able to built flight instructing, I got the experience needed to apply to an airline in Colombia."

Ralph

Ralph

Every Aruban student of Dean International has made it into Tiara Air Aruba, that is very nice.

More...
Ralph's Success Story
close

"Next to me is my Co-Pilot, Elison. This picture was taken on our first flight together, which was almost exactly 5 years after I finished at Dean International. [...] Every Aruban student of Dean International has made it into Tiara Air Aruba. [...] The future looks bright here in Aruba."

Rohaan

Rohaan

The [..] staff will all work diligently to help you finish your certificates as safely and efficiently as possible.

More...
Rohaan's Success Story
close

After receiving very hard times from other flight schools [...], I came to Dean International where Robert Dean personally sat down with me and gave me a financial and chronological look into how much remained to finish my private pilot certificate. Through his hard efforts as an instructor and mentor, I was able to finish my private pilot certificate within one week.

Welcome to Dean International

In over two decades, Dean International has educated over 7,000 pilots from all over the world, including over 1,000 students from India alone. By offering a great training experience, a friendly service staff, an ample variety of aircraft, and by improving constantly, we have become one of the largest, most prestigious FAA 141-approved flight schools in North America. Located in Miami, Florida, USA, our flight school offers an ideal location for year-round, "learn to fly" weather, flight training. Dean International is not only well-equipped to provide services to professional trainees but also caters to General Aviation renters. Visit or contact our headquarters at Kendall-Tamiami Executive Airport located in Miami, FL today to learn more about us, or simply read more about our programs if you are an international student interested in joining our school.

Local Airport Information
TAF FOR KTMB (Issued: Fri, March 27th 2015 6:42 AM UTC)
TAF KTMB 270541Z 2706/2806 17005KT P6SM SCT090
      FM271300 21013G18KT P6SM SCT025 SCT050
      FM271700 24015G25KT P6SM VCTS SCT020 BKN035CB
      FM280000 30010KT P6SM BKN050
     
METAR FOR KTMB (Issued: Fri, March 27th 2015 5:53 AM UTC):
KTMB 270553Z AUTO 18005KT 10SM FEW110 24/23 A2996 RMK AO2 SLP144 T02440228 10267 20244 58005

This weather information is provided by the National Weather Service.
It is automatically refreshed every three minutes.
TAF FOR KHST (Issued: Fri, March 27th 2015 12:06 AM UTC)
TAF TAF KHST 2700/2806 16012KT 9999 SCT030 QNH2998INS
      BECMG 2714/2715 19012G20KT 9999 FEW040 SCT060 QNH2993INS
      BECMG 2717/2718 21015G25KT 9999 VCTS SCT030 BKN040CB QNH2990INS
      BECMG 2802/2803 29009KT 9999 NSW BKN100 OVC120 QNH3000INS TX29/2718Z TN16/2712Z
     
METAR FOR KHST (Issued: Fri, March 27th 2015 5:58 AM UTC):
KHST 270558Z AUTO 18006KT 10SM CLR 25/22 A2995 RMK AO2 SLP145 60000 T02460223 10250 20237 58004

This weather information is provided by the National Weather Service.
It is automatically refreshed every three minutes.
TAF FOR KOPF (Issued: Fri, March 27th 2015 6:42 AM UTC)
TAF KOPF 270541Z 2706/2806 19007KT P6SM FEW100
      FM271300 22013G18KT P6SM SCT025 SCT050
      FM271700 25018G28KT P6SM VCTS SCT020 BKN035CB
      FM280000 30012KT P6SM BKN050
     
METAR FOR KOPF (Issued: Fri, March 27th 2015 5:53 AM UTC):
KOPF 270553Z AUTO 20007KT 10SM CLR 25/23 A2996 RMK AO2 SLP146 T02500228 10267 20250 55004

This weather information is provided by the National Weather Service.
It is automatically refreshed every three minutes.
TAF FOR KMIA (Issued: Fri, March 27th 2015 6:45 AM UTC)
TAF KMIA 270541Z 2706/2806 19006KT P6SM SCT090
      FM271300 21013G18KT P6SM SCT025 SCT050
      FM271700 24016G26KT P6SM VCTS SCT020 BKN035CB
      FM280000 29010KT P6SM BKN050
     
METAR FOR KMIA (Issued: Fri, March 27th 2015 5:53 AM UTC):
KMIA 270553Z 20005KT 10SM SCT110 25/22 A2996 RMK AO2 SLP144 T02500222 10267 20250 58004

This weather information is provided by the National Weather Service.
It is automatically refreshed every three minutes.
Design by Ariel Llizo
© Dean International Inc. 2012